Wind_Speed
19 18 17 14 14 15 16 17 18 21 26 30 32 34 36 36 36 36 36 39 41 40 41 40 39 39 39 38 37 35 34 33 33 32 30 29 27 26 25 25 25 25 24 25 25 25 24 24 24 24 25 25 24 23 22 21 21 19 18 18 17 17 17
18 18 19 16 14 15 16 17 19 22 26 30 33 34 35 36 36 36 37 39 42 42 42 42 40 40 39 39 38 37 36 34 33 33 31 30 29 28 27 25 25 26 26 25 25 25 25 24 24 25 25 25 25 24 23 23 23 22 20 20 20 19 18
18 18 20 18 16 15 15 14 18 24 29 32 34 35 36 38 38 38 38 39 41 41 41 42 42 41 40 39 38 38 38 36 34 34 32 31 31 30 29 27 26 26 26 26 24 24 25 25 25 25 25 26 25 24 24 24 24 24 22 21 21 21 21
18 18 20 20 19 18 18 17 18 25 31 34 37 38 38 38 37 37 36 37 39 40 40 42 42 41 41 41 40 39 39 38 36 35 34 32 32 31 30 29 28 27 26 27 26 24 23 24 26 26 26 26 25 25 25 25 24 25 24 22 22 22 22
19 18 18 19 19 18 19 20 21 26 31 35 38 38 36 35 34 33 33 35 37 39 40 41 40 40 40 40 39 38 40 40 38 37 35 33 32 31 31 31 30 29 27 26 26 26 24 24 25 27 27 27 26 25 26 26 25 26 25 24 24 23 22
18 16 16 18 18 17 18 20 24 30 33 35 37 36 35 35 35 35 34 34 35 36 37 38 38 38 38 38 38 38 40 41 39 38 36 34 33 32 33 33 31 30 29 27 26 27 27 25 25 26 27 27 27 26 26 26 26 26 26 26 25 24 22
17 14 15 18 18 18 19 19 22 30 34 33 33 34 35 36 36 36 34 34 35 35 36 37 37 37 39 39 39 39 40 40 40 39 37 35 34 34 34 34 32 31 29 28 27 27 27 28 27 26 27 27 27 27 26 27 27 27 27 27 27 26 24
18 15 14 16 17 18 18 17 19 25 29 29 31 33 35 35 35 36 35 35 35 36 36 37 37 38 40 40 40 41 41 40 41 40 37 35 35 35 34 33 33 32 30 29 29 28 28 29 29 28 27 27 28 28 28 28 28 28 28 28 28 28 26
19 17 16 16 18 17 15 14 15 19 23 26 29 32 34 34 34 36 37 35 35 36 37 37 37 37 39 39 39 41 41 40 40 39 38 36 35 35 34 33 33 33 31 29 29 29 29 28 29 29 29 28 29 29 29 29 30 29 29 29 30 29 28
18 18 17 16 18 16 13 14 14 15 18 21 23 27 31 33 33 34 35 35 36 37 38 37 36 36 37 37 36 38 39 39 37 37 37 36 34 34 34 32 32 33 33 31 28 29 30 29 29 29 30 30 29 30 30 30 31 31 31 31 31 31 30
15 18 15 14 15 15 14 14 14 14 15 16 20 25 29 31 31 32 34 35 35 35 35 36 36 35 36 36 35 35 37 37 35 35 36 35 34 33 34 32 31 31 33 33 31 29 30 31 30 29 31 32 31 31 32 32 32 32 32 31 32 32 31
12 16 16 14 14 16 16 13 13 15 15 16 20 24 25 27 29 30 32 33 33 32 33 35 35 34 34 34 34 35 36 36 35 34 35 35 33 32 33 32 31 30 31 33 33 31 30 30 32 31 31 32 33 32 32 33 32 33 33 32 31 31 31
9 11 13 12 11 13 15 13 14 16 15 16 21 23 23 25 28 29 29 31 31 31 32 33 34 34 34 33 33 35 35 36 37 36 35 36 35 33 32 33 32 31 30 31 32 32 31 30 31 32 32 33 33 33 33 33 33 33 33 32 31 31 30
12 11 9 7 7 9 10 11 12 15 15 16 20 23 23 24 27 28 27 28 30 30 30 31 33 33 34 33 33 35 36 37 37 38 37 37 37 35 33 33 33 32 32 31 31 31 31 31 31 32 33 33 34 34 33 33 33 33 33 33 32 30 30
12 12 10 7 5 6 7 9 10 11 13 15 17 20 21 22 25 26 25 26 29 30 29 30 32 32 33 34 34 34 37 36 36 38 38 37 37 38 36 34 34 34 33 32 31 30 31 31 30 31 32 32 33 33 33 33 34 35 34 34 34 32 31
10 12 11 9 6 5 6 7 8 8 10 11 13 16 19 19 21 24 25 25 27 29 29 29 31 32 32 33 34 33 34 36 35 35 37 37 37 38 37 35 33 33 34 33 33 31 31 31 30 30 31 32 32 32 33 34 35 37 38 37 37 35 34
12 12 12 11 9 7 6 6 6 7 8 9 11 14 17 19 19 22 24 25 26 29 29 28 30 33 33 32 32 32 33 35 35 34 35 37 36 36 37 36 35 34 34 34 34 32 32 31 31 31 30 30 32 33 34 36 36 38 40 41 40 39 37
12 14 15 14 12 10 9 9 9 9 10 11 13 14 17 18 18 20 23 25 26 28 29 28 28 31 33 32 31 33 33 33 34 34 35 36 36 36 37 37 36 35 34 35 35 34 32 31 32 33 31 30 31 33 34 36 37 39 41 42 43 42 40
5 7 10 12 12 12 12 11 11 12 11 12 14 17 18 19 19 20 23 24 25 27 29 29 27 28 32 33 33 33 33 32 33 34 34 35 36 35 35 36 37 36 35 35 35 34 33 33 33 34 33 32 31 32 34 34 36 38 41 43 44 45 43
5 3 2 5 6 7 8 6 8 11 12 13 17 19 20 20 20 21 22 22 24 27 28 29 27 26 29 32 32 32 33 32 32 32 32 32 33 34 34 35 37 37 35 33 33 34 34 35 34 33 34 34 32 32 33 34 34 37 40 43 44 45 45
2 4 3 2 2 1 4 5 6 7 7 8 12 16 19 21 20 20 21 21 23 25 27 28 27 25 27 30 31 31 32 32 31 31 30 31 32 32 33 34 34 34 33 31 32 34 35 35 34 33 34 35 35 33 32 32 33 35 39 42 43 44 46
6 7 6 4 1 5 7 7 7 6 6 4 1 7 13 18 20 20 21 23 22 23 25 27 27 26 25 28 30 31 31 31 30 29 30 30 31 31 32 32 32 32 33 31 30 31 32 33 33 33 33 34 35 34 33 32 33 35 38 40 42 43 45
5 6 4 4 7 10 11 9 8 6 4 2 2 6 8 12 19 21 21 22 22 22 23 25 27 27 25 26 29 30 30 30 29 29 29 30 30 31 31 31 30 30 31 31 28 27 29 30 31 32 32 32 33 34 35 34 33 34 36 38 40 43 45
12 7 6 11 12 12 12 10 7 5 3 3 4 8 9 8 13 19 21 21 22 22 22 23 26 28 26 25 28 30 30 29 29 29 30 30 30 30 30 29 29 29 30 30 29 27 26 27 29 30 31 32 32 33 34 34 33 34 35 36 38 42 45
14 13 11 13 13 11 10 7 5 4 5 6 8 10 11 11 11 13 18 21 22 21 21 23 26 27 26 25 26 29 29 29 29 30 30 30 30 29 29 29 28 28 28 29 30 28 26 25 26 28 30 31 31 32 33 33 33 34 36 37 37 39 44
11 10 10 12 13 11 7 4 4 5 6 7 7 8 10 12 13 13 14 19 21 21 22 23 24 25 26 25 25 28 29 28 29 29 29 29 29 28 28 28 27 26 27 27 28 28 27 26 26 26 27 28 29 30 32 32 32 32 35 37 36 37 41
10 9 10 12 11 8 6 5 5 5 6 6 6 7 8 10 12 13 14 16 18 20 21 21 22 23 25 24 24 26 28 28 28 29 28 27 28 27 27 27 26 26 26 26 26 26 27 27 26 25 25 26 26 26 28 30 31 31 32 34 34 35 38
9 9 10 12 10 8 7 7 6 5 6 6 5 6 8 9 11 11 12 13 16 18 17 17 19 23 24 24 24 25 26 26 27 28 27 26 26 26 26 26 26 26 26 25 24 25 25 25 25 24 23 23 24 24 25 26 27 29 31 32 32 32 35
9 9 10 10 10 11 10 8 6 6 6 7 8 8 7 9 10 10 10 10 12 15 14 14 18 22 23 23 24 24 24 26 26 27 26 25 26 26 25 25 25 25 25 25 23 22 22 22 22 22 21 21 22 22 22 22 23 25 28 30 31 31 32
9 9 10 10 10 10 10 8 7 6 5 5 7 8 7 8 9 7 8 8 10 12 13 12 15 21 23 23 23 23 23 24 25 25 25 24 24 25 24 23 24 23 23 24 22 20 20 20 20 20 19 18 18 18 18 19 18 20 22 24 26 27 29
9 9 9 10 9 8 8 7 7 6 4 5 6 7 6 6 8 6 6 7 9 11 12 12 14 19 20 20 21 21 21 21 22 23 22 22 23 23 22 22 22 21 22 23 22 19 18 18 18 18 17 16 15 15 15 15 16 17 17 18 21 24 27
9 9 9 9 7 7 8 7 6 5 3 3 5 5 4 3 3 4 5 6 8 11 12 11 13 16 17 17 18 19 19 19 19 20 20 19 20 21 21 21 21 20 19 20 20 18 16 15 15 15 14 14 15 14 14 14 15 13 10 9 11 16 20
8 8 8 8 6 7 8 7 5 4 5 6 5 5 5 7 6 3 4 4 5 8 9 10 12 14 14 15 16 17 18 19 19 19 19 18 19 19 19 20 20 19 18 17 17 16 14 13 13 14 14 14 14 14 15 14 8 3 3 4 4 4 7
7 8 8 7 6 6 7 5 3 4 5 7 7 6 4 5 6 5 3 2 4 7 7 8 11 13 13 14 15 16 17 17 18 19 18 17 16 15 17 19 19 16 15 15 15 15 14 14 13 12 10 9 7 7 6 3 5 8 7 7 8 8 7
7 7 6 5 5 4 4 4 4 4 4 4 5 5 4 3 3 3 1 1 4 7 8 7 9 11 12 13 14 14 14 15 17 19 17 14 13 11 10 12 16 16 15 12 10 11 12 11 10 8 7 6 6 6 6 8 10 9 8 8 8 8 8
6 6 4 3 2 1 2 3 3 4 4 4 5 7 7 7 5 4 3 3 2 5 9 9 9 10 12 12 13 13 14 13 13 13 15 19 22 22 20 17 14 16 17 14 12 11 10 10 12 10 8 9 9 8 8 9 9 8 8 8 8 9 10
6 5 3 2 2 2 3 3 3 3 3 4 6 7 8 9 8 6 6 6 5 7 9 9 9 9 8 8 9 12 14 13 10 9 13 20 23 23 25 26 24 21 19 16 13 12 11 11 12 10 9 10 11 11 10 10 9 8 8 9 10 11 13
7 5 3 2 3 4 5 4 4 4 4 4 4 5 7 8 9 9 10 9 7 8 11 13 13 13 13 12 12 11 10 11 13 13 14 18 19 20 23 23 22 22 22 21 19 17 15 15 15 14 14 13 13 12 11 9 8 8 10 10 12 13 15
Wind_Direction
171 170 175 176 177 182 187 190 192 192 189 187 190 191 190 190 186 183 182 183 184 184 185 185 186 187 189 190 193 194 194 195 196 197 200 201 201 201 198 197 199 200 200 200 202 202 202 201 199 202 206 208 207 207 208 209 210 211 210 208 206 202 200
178 172 170 175 179 183 188 189 191 195 191 187 190 192 192 191 188 184 184 184 184 185 185 186 187 188 189 191 192 195 195 195 197 198 200 202 203 203 201 199 199 201 202 202 203 205 205 202 201 202 205 207 209 208 207 209 209 209 209 209 208 205 203
183 175 165 174 181 182 191 193 194 195 192 190 191 193 193 192 189 186 184 184 185 185 186 187 188 189 190 191 192 194 196 196 197 198 199 202 203 203 203 203 203 203 204 205 205 205 205 204 203 203 204 206 208 208 207 208 209 208 207 209 209 207 206
180 176 166 174 180 179 186 192 196 197 194 192 192 193 194 192 190 188 185 184 183 183 186 187 188 189 190 190 192 195 197 197 198 199 200 202 203 203 203 205 206 205 206 207 207 206 204 205 205 204 205 205 206 207 207 206 207 208 207 207 209 209 210
176 178 169 172 178 179 184 187 191 194 195 194 193 193 194 191 189 189 188 187 185 184 186 186 187 189 190 191 192 194 197 199 200 201 201 202 202 202 204 206 206 207 208 207 207 208 206 204 204 205 206 206 205 206 207 207 207 207 206 206 208 209 210
177 182 171 170 180 182 183 185 187 191 195 195 193 192 192 191 191 191 190 188 188 187 186 187 188 189 190 191 192 194 197 199 201 201 202 202 202 202 205 207 207 208 209 208 207 208 207 205 203 203 205 205 206 206 207 207 207 208 207 206 207 209 209
175 186 179 172 177 180 181 183 186 191 195 195 191 190 191 192 192 192 191 190 189 189 188 188 189 189 191 193 194 195 197 199 201 202 202 202 202 203 205 207 208 208 208 208 208 207 208 208 205 203 203 204 205 206 206 207 207 207 208 207 208 210 210
173 187 190 171 168 178 180 180 185 189 192 193 191 189 191 193 192 192 193 192 191 191 191 190 190 191 193 194 195 196 197 198 200 201 202 202 203 205 206 206 207 208 207 207 208 208 208 208 208 205 204 204 205 206 206 207 208 207 207 208 210 210 211
174 181 191 175 168 178 177 178 187 185 186 191 192 189 190 192 193 193 194 193 192 193 193 192 192 193 195 196 196 197 198 198 199 200 200 201 202 204 205 205 207 208 207 207 208 208 208 208 208 207 206 205 206 206 207 208 209 208 208 209 211 211 212
173 174 187 184 171 173 174 174 184 182 181 190 192 187 189 192 194 194 194 194 194 195 194 193 192 193 194 196 198 197 198 198 197 197 197 198 199 202 203 204 206 207 207 207 208 208 209 209 208 208 207 207 207 207 208 208 209 209 209 210 212 213 213
164 162 175 186 171 166 173 175 180 181 177 185 190 188 189 192 194 194 195 197 197 196 194 193 193 192 191 193 195 196 197 197 195 194 195 197 199 200 202 202 203 206 207 208 208 208 208 209 208 208 208 207 207 208 209 209 210 210 210 212 213 214 215
155 157 167 182 170 163 173 179 179 179 176 180 188 190 188 189 194 196 197 199 199 197 195 194 194 193 190 191 193 195 197 197 197 196 197 199 200 201 202 203 203 204 204 206 208 209 209 208 208 208 209 209 209 209 210 210 210 210 211 212 214 215 216
118 143 159 168 160 158 171 179 175 174 174 176 183 189 190 189 194 198 197 198 199 198 197 195 195 194 191 191 193 195 196 198 199 200 200 201 203 203 204 205 205 204 203 204 206 208 209 207 207 208 210 210 210 210 211 211 211 212 212 213 214 215 216
102 111 124 136 131 137 158 171 169 166 168 172 180 189 192 191 196 199 196 196 199 200 199 197 196 194 192 192 195 196 197 199 200 201 202 204 205 205 206 206 206 206 205 204 205 207 209 207 205 206 208 210 211 211 211 211 211 212 213 213 215 216 216
125 121 123 129 125 120 134 149 154 157 163 171 178 187 192 194 196 197 196 195 197 201 202 197 195 195 193 193 196 197 197 199 201 202 204 204 204 205 206 207 208 208 207 206 205 207 210 211 208 206 206 209 211 211 211 212 212 213 213 213 214 216 217
150 138 133 135 138 132 123 130 142 152 162 172 180 186 193 197 194 193 195 196 196 201 203 198 193 194 195 196 198 198 197 198 201 202 203 204 204 205 206 207 208 209 209 209 208 207 209 212 213 210 207 207 208 210 211 213 214 215 215 214 214 216 218
159 141 137 143 150 150 144 142 147 159 171 181 189 190 194 198 196 193 196 197 196 199 202 200 194 193 197 198 197 198 197 198 200 201 202 204 204 204 205 206 207 209 210 210 210 209 208 210 213 214 212 207 206 209 212 214 216 217 216 216 217 217 217
151 145 151 156 153 148 156 165 166 174 185 191 196 198 197 197 195 195 198 198 196 196 201 204 198 193 196 198 197 198 199 198 199 200 201 203 203 204 204 205 207 208 209 209 209 209 209 208 210 214 215 211 206 208 213 217 218 218 218 218 219 219 218
91 126 141 145 147 150 163 176 178 181 188 190 194 200 203 200 196 198 201 198 194 195 200 206 205 196 194 197 197 197 199 199 199 200 201 201 202 203 203 203 205 207 208 209 208 209 209 210 211 212 215 215 211 209 213 218 220 219 219 220 221 222 220
4 341 79 123 145 156 162 165 164 172 181 185 190 196 201 204 202 202 202 199 195 195 199 206 208 201 195 196 197 196 197 199 200 201 202 201 200 201 201 202 205 207 208 208 208 208 210 211 212 212 213 216 217 215 215 218 220 221 221 222 223 224 223
263 279 282 279 309 72 104 100 115 139 151 169 186 190 191 198 203 200 199 201 199 197 198 204 209 206 197 195 196 196 196 198 200 201 202 201 200 200 201 203 205 206 206 207 208 209 211 212 213 213 214 216 219 221 221 220 221 222 223 224 225 225 225
225 228 233 224 141 73 72 69 69 71 66 64 189 199 190 192 196 196 197 200 203 201 199 201 207 209 202 195 195 195 195 196 197 198 201 201 200 201 202 203 204 205 205 207 209 212 213 213 214 215 216 217 219 222 225 225 225 225 225 225 225 225 225
281 248 219 119 96 82 69 57 49 45 41 27 262 248 224 196 190 191 194 199 203 204 201 200 205 209 206 197 195 195 195 195 195 197 199 199 199 201 203 203 203 204 205 206 209 212 212 213 215 216 218 219 220 222 226 228 228 229 229 228 225 224 224
17 14 53 78 84 80 68 57 46 30 355 302 254 249 254 234 201 190 189 195 202 204 202 203 206 208 207 200 196 195 194 194 195 197 199 199 199 201 201 202 203 204 205 205 207 211 212 213 215 217 218 220 221 223 226 228 230 232 234 233 228 223 223
32 28 41 59 64 61 55 41 14 334 293 271 254 242 241 246 237 207 189 191 200 204 205 206 207 207 207 202 195 194 194 193 195 199 200 200 200 198 198 200 201 202 204 205 208 212 214 212 213 215 218 220 222 224 226 228 230 232 234 236 233 227 223
39 32 34 45 46 41 33 5 315 292 284 275 267 255 235 229 237 233 206 192 195 204 209 208 205 204 205 203 195 192 194 195 196 200 202 202 201 199 199 199 199 199 201 203 207 211 213 214 214 214 216 219 222 225 227 228 230 232 234 236 235 232 227
31 25 20 21 21 25 23 358 324 302 299 293 283 274 253 230 230 233 218 197 196 206 211 207 201 199 201 201 195 192 194 195 197 200 202 203 202 201 201 199 198 199 199 201 205 207 211 215 216 217 218 219 220 224 227 228 229 232 236 237 236 235 230
14 15 11 3 1 16 21 357 337 329 321 317 310 286 261 244 239 234 217 202 202 206 208 203 196 193 195 197 195 192 193 195 197 199 202 204 202 200 200 199 198 199 198 199 203 205 207 212 216 220 222 222 222 226 228 229 230 232 235 238 238 237 234
14 12 8 359 357 6 6 349 336 334 325 325 329 317 286 261 252 236 213 205 203 200 202 203 193 187 189 192 193 192 193 195 197 198 200 203 201 198 197 196 197 198 198 198 200 202 204 208 212 217 223 226 228 229 231 233 234 235 236 238 238 238 236
12 2 356 351 347 350 349 339 331 328 319 317 317 307 292 280 269 243 208 201 195 188 197 206 193 184 184 187 190 191 194 196 197 197 199 201 198 196 196 195 195 197 197 196 198 200 202 204 207 212 220 226 229 232 235 238 241 243 244 246 245 244 242
359 353 346 338 331 333 334 325 317 317 327 339 324 300 277 269 263 237 200 194 189 186 200 208 189 177 179 183 187 191 195 197 196 194 195 198 195 192 193 193 194 196 195 194 196 198 200 202 204 209 215 222 229 235 238 241 245 250 255 258 255 250 247
346 346 338 327 327 333 327 314 302 301 326 351 332 321 341 342 287 215 180 182 187 191 201 199 173 165 171 178 184 191 195 197 195 191 192 194 191 189 190 191 193 196 194 192 194 198 200 201 203 209 214 220 226 231 235 241 246 250 261 271 263 254 250
339 340 328 323 335 335 321 314 317 345 13 15 358 350 15 25 26 61 113 140 172 184 186 172 155 155 167 176 185 192 195 195 192 188 187 188 188 189 191 191 193 195 192 191 194 196 197 200 205 211 218 222 222 223 230 235 227 170 88 45 12 324 296
330 327 320 320 330 327 322 331 6 24 22 18 9 1 12 30 31 43 79 142 184 179 167 158 157 162 172 180 185 189 191 190 186 182 183 184 184 186 189 192 195 191 185 191 199 198 196 201 204 208 214 217 214 211 214 197 84 67 42 14 0 345 332
319 318 322 333 346 352 353 2 15 25 29 23 13 12 32 56 52 53 65 255 217 188 173 167 165 168 176 182 181 180 183 181 177 178 176 158 132 121 137 174 188 176 155 153 171 180 179 169 152 134 116 99 80 69 73 68 52 33 15 7 0 349 342
308 304 304 308 322 19 45 30 30 47 61 51 34 32 43 53 59 74 72 41 59 153 160 168 173 173 176 177 167 165 172 169 165 174 169 141 117 102 95 101 123 137 133 127 129 137 139 127 114 104 97 90 77 69 75 77 65 50 41 34 21 12 6
299 296 287 263 230 146 112 92 83 87 84 66 52 46 48 50 51 56 58 54 71 110 121 128 139 143 143 137 133 149 165 155 122 114 134 132 122 110 99 92 91 97 102 103 105 107 106 103 100 96 94 93 89 87 86 81 71 55 40 29 21 14 4
299 295 270 195 159 136 128 130 127 117 106 92 80 70 60 52 52 57 58 58 70 94 101 102 101 95 85 80 87 101 118 114 98 94 111 121 119 113 107 100 92 88 89 92 94 95 95 97 96 93 90 88 87 85 77 65 49 32 24 20 15 5 356
Height
674 679 681 684 687 691 695 698 703 707 712 715 719 724 728 732 733 735 737 740 743 746 750 753 756 760 763 766 769 772 775 778 780 783 785 788 790 792 793 796 798 800 801 803 805 806 808 810 812 814 815 817 818 820 822 823 825 826 827 829 830 831 831
671 676 680 682 684 686 688 692 698 703 707 711 716 721 725 727 728 729 732 735 738 741 745 748 752 755 758 762 765 768 771 774 776 779 782 784 787 789 791 793 795 797 799 800 802 804 806 808 809 811 812 814 816 818 819 821 822 824 825 826 827 829 830
667 671 676 679 680 682 684 689 695 698 702 707 712 716 719 720 722 724 727 730 733 737 741 743 746 749 753 757 761 764 767 770 772 775 778 780 783 785 788 790 792 794 796 797 799 801 803 805 807 808 810 811 813 815 817 818 819 821 823 824 825 826 827
663 664 669 675 675 678 681 685 691 694 697 702 706 709 712 715 719 721 724 727 729 733 736 739 742 745 748 752 756 759 762 765 768 770 773 776 779 782 785 787 789 791 792 794 797 798 800 802 804 806 807 809 810 812 814 816 817 818 820 821 823 824 825
660 660 665 670 671 674 676 679 685 689 693 697 701 705 709 714 718 720 723 725 727 729 730 734 738 741 745 748 751 754 757 760 763 766 769 772 775 779 781 783 785 787 789 791 793 795 797 799 800 803 805 806 808 810 812 813 814 816 817 819 820 821 823
656 657 661 665 667 669 670 673 677 682 687 692 696 702 706 711 714 716 720 723 725 727 729 732 735 738 741 744 746 749 752 756 759 762 765 768 771 774 776 778 781 783 786 788 790 792 794 796 797 799 801 804 806 807 809 811 812 813 814 816 817 819 820
652 654 655 658 660 663 664 667 671 676 683 688 693 699 702 705 708 711 715 718 720 724 726 729 731 734 736 739 742 745 748 751 754 758 761 764 767 770 772 775 777 780 783 785 787 789 791 793 794 796 798 800 803 804 806 808 809 811 812 813 814 816 817
647 650 651 652 654 658 660 663 666 672 680 685 689 693 696 699 703 706 709 712 715 719 721 724 726 728 731 734 737 739 742 746 749 753 757 760 763 765 768 771 773 776 779 781 783 785 787 789 791 793 795 797 799 801 803 805 806 808 809 810 811 812 814
640 645 646 647 650 654 657 660 664 669 675 680 683 686 690 694 696 699 703 706 710 712 715 718 721 724 727 730 733 735 738 742 745 749 752 756 758 761 764 766 769 773 775 777 780 782 784 786 788 790 792 794 796 798 799 801 803 804 805 806 807 809 810
634 640 642 642 646 650 652 656 660 665 671 675 678 681 685 688 691 694 698 701 703 706 709 713 717 720 723 727 730 732 735 738 741 744 747 751 753 756 759 762 765 768 771 774 776 778 780 783 785 787 789 790 792 794 796 797 799 801 802 803 804 805 806
630 636 640 641 643 647 649 652 657 661 666 670 674 677 679 683 686 689 693 695 698 702 706 709 712 715 718 722 726 729 732 735 738 740 743 746 749 752 755 759 761 764 767 770 773 775 777 779 781 783 785 786 788 790 791 793 795 796 798 799 800 801 803
628 632 638 641 643 647 650 651 655 658 661 666 669 673 676 679 683 686 689 692 695 699 702 705 708 711 714 718 721 724 728 731 734 737 740 743 746 749 752 755 758 760 763 765 768 771 773 775 777 779 781 782 784 786 787 789 791 793 794 796 797 799 800
630 631 635 638 641 646 649 651 654 656 658 662 666 670 674 677 680 682 685 689 692 696 698 701 704 707 710 714 717 720 723 726 730 733 736 739 742 745 748 751 754 756 758 761 764 767 769 770 772 774 777 778 780 782 784 786 788 790 791 793 794 796 797
634 635 638 639 642 646 649 651 653 654 657 659 663 667 670 673 677 679 682 686 689 692 695 698 701 703 706 710 712 715 718 721 725 728 731 734 737 741 744 747 750 752 755 757 760 762 764 766 768 770 772 774 776 778 781 783 784 786 788 789 791 793 794
638 640 643 644 645 647 649 652 652 654 656 656 660 664 667 670 674 676 680 683 686 689 691 693 697 700 703 705 707 710 713 717 720 723 727 730 733 736 739 742 746 748 751 753 755 758 761 762 764 766 768 770 772 775 777 779 780 781 783 785 787 789 790
639 641 645 648 649 649 650 651 652 653 655 656 658 662 665 668 670 673 677 680 682 686 688 690 693 696 698 701 703 707 710 713 716 719 723 726 728 732 735 739 742 745 747 749 751 754 756 759 761 762 764 766 768 771 773 774 775 776 778 780 782 784 785
639 642 646 648 650 650 651 652 653 654 656 657 658 660 662 665 667 670 673 676 679 682 684 687 689 691 694 697 700 704 707 709 712 715 718 721 724 728 731 735 738 740 743 745 747 750 752 755 757 759 760 762 764 766 767 768 769 770 772 774 776 778 780
638 642 645 647 649 650 652 653 654 655 656 656 657 659 661 663 665 667 669 672 675 678 682 684 684 687 690 693 697 701 703 706 708 711 714 717 720 723 726 730 733 736 738 740 742 745 748 750 752 754 756 758 759 761 762 762 764 765 767 769 770 772 774
639 640 641 645 647 649 651 651 651 652 653 653 656 658 659 661 663 665 666 669 672 675 678 680 681 684 686 689 693 696 699 703 705 708 710 713 716 720 723 726 728 730 733 735 738 741 743 745 747 749 752 754 755 756 757 758 760 761 762 764 765 767 769
642 641 640 642 644 644 645 645 646 648 650 652 654 655 658 660 661 663 665 668 670 672 674 677 679 681 683 685 689 692 696 699 702 705 708 710 714 716 719 721 723 725 729 732 735 737 738 740 742 745 748 749 751 752 752 754 755 757 758 759 761 763 765
644 643 642 642 642 643 643 643 645 646 648 650 651 653 656 658 659 662 664 666 668 669 672 674 676 678 680 682 685 689 692 695 699 702 705 708 711 713 715 717 719 722 726 728 731 732 733 736 739 741 743 745 747 748 748 750 751 752 754 755 757 759 761
642 641 641 640 641 643 643 643 645 646 648 650 650 651 653 655 657 660 662 664 666 667 669 672 674 675 677 679 682 685 689 692 696 699 702 705 707 709 711 714 716 720 722 725 727 729 731 733 735 737 739 741 743 744 745 746 747 748 749 750 753 755 757
637 636 636 636 639 642 643 645 647 649 650 651 652 652 652 653 655 657 659 662 664 665 667 669 671 672 674 676 679 682 685 689 692 696 699 702 704 705 708 710 714 717 719 722 724 726 728 730 731 733 735 737 738 739 740 742 743 744 744 746 748 751 752
638 637 637 638 640 642 644 648 649 651 652 653 653 653 652 652 653 654 657 659 661 663 665 666 667 669 671 674 676 679 683 686 690 693 696 698 700 702 705 708 711 714 716 719 721 722 725 726 728 730 731 732 734 735 736 737 739 740 741 742 743 745 746
643 643 644 643 644 645 648 650 651 652 653 653 653 653 653 653 652 652 654 656 658 661 661 662 664 666 669 672 674 678 681 684 687 691 693 695 697 699 701 704 707 710 713 715 717 719 721 723 724 725 727 728 730 731 732 734 735 736 737 737 739 741 742
648 648 648 647 648 649 650 651 652 652 652 652 652 652 652 652 651 651 652 653 655 657 657 659 661 664 668 671 673 676 679 682 685 688 690 693 695 696 699 701 704 707 709 712 714 716 718 719 720 721 723 725 727 728 729 730 731 732 732 733 736 737 739
648 649 650 650 651 651 651 652 652 652 651 651 651 651 651 650 650 650 650 650 652 653 654 657 660 663 666 669 671 674 677 679 683 685 688 691 692 694 697 698 701 703 705 708 711 712 714 716 717 718 720 721 723 724 725 726 727 728 729 730 732 734 736
649 651 652 652 651 651 652 652 652 651 651 650 650 650 650 649 649 648 648 649 650 651 654 657 659 661 664 667 669 672 675 677 680 683 686 688 690 692 694 696 698 700 702 705 707 709 711 713 714 716 717 718 720 721 722 723 724 725 725 727 728 730 732
653 654 654 653 652 652 652 653 652 652 652 651 650 650 649 649 648 647 648 648 649 651 654 656 657 659 662 665 668 670 673 676 678 681 683 686 688 690 692 694 696 698 699 702 704 706 708 710 712 714 715 716 717 718 719 720 721 722 722 723 725 727 728
656 657 656 655 655 654 653 654 653 653 653 652 651 650 649 649 648 647 647 648 649 651 653 654 656 658 660 663 666 669 672 674 676 679 681 683 686 688 690 692 693 695 697 699 701 703 705 707 710 711 712 714 715 716 717 718 719 720 720 721 723 724 725
657 658 657 656 656 655 655 655 653 653 653 652 651 650 649 649 648 647 647 648 649 651 652 654 655 656 659 662 665 668 671 673 675 677 679 682 684 686 688 690 691 693 695 696 698 700 702 705 707 709 711 712 713 714 716 716 717 719 719 720 721 721 721
659 659 658 658 657 656 656 655 653 652 652 652 652 650 649 649 648 647 648 649 650 651 652 653 654 656 659 662 664 667 670 671 673 676 678 681 683 684 686 688 690 691 693 694 696 698 700 703 705 707 709 710 711 713 714 715 716 718 718 718 718 718 719
662 660 660 659 658 658 657 655 654 653 653 653 653 651 651 650 649 649 650 650 651 652 652 653 654 656 659 662 664 666 668 670 672 675 677 680 682 683 685 687 688 690 692 693 695 696 698 701 703 705 706 708 709 710 711 713 715 716 716 716 717 718 719
664 662 662 661 660 659 658 656 656 656 656 656 655 654 653 652 652 652 652 652 652 653 653 654 655 657 659 662 664 666 667 669 671 673 676 679 680 682 683 684 686 689 690 692 694 695 697 699 701 703 704 705 707 708 710 712 713 714 715 716 717 718 719
665 664 664 662 661 661 659 659 658 658 658 659 658 656 655 654 654 654 654 654 654 653 654 655 656 657 659 661 663 666 667 669 671 673 675 678 679 680 681 682 684 686 688 690 692 694 695 697 699 701 703 704 706 708 709 711 713 714 715 716 716 717 717
666 665 664 664 663 662 661 661 661 661 661 661 660 659 657 656 656 656 656 655 655 654 655 656 657 658 660 661 663 665 667 669 671 673 674 676 678 680 681 683 685 686 687 690 692 693 694 696 698 700 702 704 706 708 709 711 713 714 715 715 715 715 715
666 665 665 665 664 663 663 663 663 663 663 663 662 661 660 659 658 658 657 657 656 656 657 657 658 659 660 661 663 665 668 670 672 672 674 676 678 680 682 684 687 688 689 691 692 693 694 696 698 700 702 704 706 708 710 711 713 714 714 714 714 714 714
666 665 665 665 664 664 665 664 665 665 665 664 664 663 662 661 661 660 659 659 658 658 658 659 660 661 662 663 664 666 668 670 672 673 675 676 678 680 682 684 687 690 691 692 693 694 695 697 699 701 702 704 706 708 709 711 712 712 713 713 713 712 712